レモン-パンスターズ彗星

P/2012 WA34 ( Lemmon-PanSTARRS )

English version
Home page
Updated on May 7, 2015

---------------------------------------------------------------------

・ プロフィール

発見日 2012年11月26日、2013年1月7日
発見光度 20.5等、21.1等
発見者 A. Boattini (Mount Lemmon Survey), Pan-STARRS 1 telescope (Haleakala)

・ 軌道要素

Epoch 2013 Jan. 28.0 TT = JDT 2456320.5
T 2013 Jan. 24.75885 TT                                 MPC
q   3.1733727            (2000.0)            P               Q
n   0.09354899     Peri.  353.16236     +0.03970492     -0.99354539
a   4.8059212      Node    94.52335     +0.92173259     -0.00463987
e   0.3396952      Incl.    6.11887     +0.38578823     +0.11334033
P  10.5
From 30 observations 2011 Sept. 26-2013 Jan. 18, mean residual 0".4.

・ 光度変化

        m1 = 13.5 + 5 logΔ + 10.0 log r

---------------------------------------------------------------------

軌道要素はM.P.E.C. 2013-C52に掲載されたものです。
光度グラフはComet for Windowsで作成したものです。

---------------------------------------------------------------------

Copyright(C) Seiichi Yoshida (comet@aerith.net). All rights reserved.